Presure
166 165 160 158 159 146 157 160 166 153 162 145 153 153 152 162 166 154 172 162 168 170 164 169 168 179 167 173 190 170 198 184 174 187 178 196 179 178 193 191 185 186 203 230 230 214 216
150 145 153 152 146 159 153 157 144 162 151 152 160 168 163 153 157 162 153 157 159 164 169 145 152 172 163 175 174 195 193 185 188 192 174 177 181 177 174 219 198 184 181 171 180 190 201
151 151 166 170 151 172 161 152 153 167 162 170 156 164 154 154 129 159 162 164 161 164 167 162 149 163 172 183 173 167 184 194 179 171 172 201 162 190 162 172 181 168 165 211 169 180 195
161 157 159 162 169 154 156 136 149 165 166 150 167 166 154 160 141 165 156 157 158 165 163 162 160 152 168 156 169 168 183 160 185 176 156 168 188 167 182 198 202 171 169 194 170 167 224
163 147 146 151 159 148 154 148 152 159 164 170 154 166 164 170 154 166 166 159 164 169 162 159 155 163 156 147 167 179 163 163 165 164 173 167 140 191 152 189 181 227 172 157 206 168 182
154 156 158 136 154 153 153 151 128 157 169 160 169 153 146 142 156 162 159 161 165 161 150 144 166 150 161 155 153 146 175 160 165 174 184 145 186 177 161 197 209 196 163 215 148 167 185
164 167 158 147 163 154 160 169 167 158 148 174 176 176 142 144 164 170 160 164 169 151 160 153 167 151 145 173 162 170 169 133 178 133 173 186 138 184 117 205 202 168 202 165 218 219 178
170 165 165 133 157 154 160 163 163 159 170 135 178 175 151 170 165 160 164 163 161 151 156 168 163 151 163 162 163 155 184 169 170 171 186 183 197 205 193 199 146 174 206 154 192 133 201
179 165 163 158 154 155 161 170 151 184 186 175 179 159 142 162 161 164 162 153 155 143 152 158 152 160 166 153 152 177 162 173 175 173 185 193 201 209 209 212 215 211 218 156 171 200 219
171 169 170 161 148 158 153 184 156 190 178 174 170 144 165 157 165 157 153 162 152 153 155 161 163 163 161 152 175 164 179 168 182 183 196 211 228 224 210 217 223 234 229 236 224 210 225
179 184 170 174 163 155 173 187 183 174 163 165 168 156 161 162 167 158 155 167 148 145 153 162 142 168 148 165 159 180 191 191 205 198 230 202 235 261 422 405 478 490 476 450 285 273 268
182 188 173 167 175 158 164 187 173 170 169 166 162 167 159 172 160 164 153 153 136 160 169 157 167 166 161 174 184 191 186 200 212 209 222 428 515 490 477 472 464 447 459 451 449 432 422
184 192 174 167 169 165 171 178 177 178 171 166 169 173 168 156 165 151 166 142 165 170 160 159 164 166 171 175 178 190 203 207 281 318 529 520 514 461 454 450 440 438 437 435 459 422 423
188 186 166 161 172 162 178 179 177 179 177 168 168 169 172 157 166 167 143 168 157 170 144 169 159 182 183 178 184 186 207 205 216 410 395 463 473 454 427 425 427 413 407 404 407 415 416
188 173 170 166 148 163 189 179 176 182 174 181 174 162 140 170 173 146 168 143 168 146 167 164 169 172 168 191 213 233 210 274 403 399 470 470 468 414 407 405 401 390 396 385 395 391 392
176 170 174 160 154 165 174 182 174 181 181 178 174 167 176 170 168 172 161 159 156 157 160 162 174 179 183 201 200 205 224 400 381 457 443 421 450 408 400 397 388 382 371 373 380 371 392
171 159 163 159 162 163 183 186 180 173 187 160 169 178 165 174 182 156 155 167 142 171 172 177 169 194 185 202 205 207 357 380 360 416 452 436 433 399 399 396 389 380 375 376 368 359 355
175 167 171 158 167 164 179 181 175 170 159 175 174 156 154 155 169 159 151 160 163 158 169 172 176 206 203 203 237 343 380 370 352 384 437 421 424 405 377 377 374 369 363 360 364 367 358
178 165 171 162 179 188 182 176 193 159 158 170 167 166 155 177 155 164 158 160 179 178 183 168 189 184 214 195 294 382 376 357 346 338 400 401 398 395 382 374 363 357 352 352 352 357 354
163 182 169 164 178 196 178 180 183 183 154 161 177 181 173 176 150 159 139 173 170 167 170 181 188 197 200 253 317 333 361 352 343 325 380 408 404 393 381 366 363 355 349 345 345 350 355
176 158 162 167 175 179 200 186 180 175 167 172 171 183 151 152 156 155 160 168 155 194 190 196 195 200 228 255 353 323 359 349 338 322 337 410 395 388 375 363 357 352 339 338 334 339 345
179 165 179 169 199 180 170 170 169 175 192 198 197 171 190 160 141 166 176 176 181 174 202 197 202 186 240 264 345 319 297 350 330 321 325 360 369 378 376 364 349 352 342 339 337 333 339
168 187 158 157 171 174 184 177 188 190 176 184 194 190 153 176 173 179 178 153 165 191 177 203 179 221 247 272 341 312 282 343 328 319 351 351 351 371 369 367 359 346 340 337 327 328 328
162 161 157 169 181 178 185 175 199 179 180 179 171 165 145 165 168 163 180 185 190 189 175 195 196 222 237 270 333 308 277 341 326 317 351 343 344 343 354 365 359 351 345 338 330 328 322
171 162 163 178 172 166 188 183 176 187 170 173 179 162 160 169 176 166 162 188 202 178 199 198 223 227 246 275 329 303 270 336 322 337 347 344 341 338 335 345 359 359 349 346 340 329 327
161 162 176 156 180 171 181 181 183 165 164 188 194 168 163 187 168 164 189 178 187 185 183 206 220 228 247 333 326 296 271 331 315 360 347 343 342 335 331 324 341 342 340 353 346 345 341
169 175 176 160 173 181 192 159 183 180 193 186 162 166 189 167 160 189 199 193 174 183 208 219 219 232 251 338 321 288 270 328 310 356 342 340 341 337 337 338 328 332 340 335 321 345 347
174 180 168 179 169 185 187 179 182 182 145 175 149 160 195 150 177 189 171 177 199 193 202 221 217 236 259 341 320 280 278 330 312 358 347 339 335 327 327 327 329 334 329 339 340 336 311
167 172 180 172 177 185 174 180 172 151 169 154 150 199 184 157 174 181 181 196 179 192 214 218 227 233 281 341 319 269 283 335 313 374 364 353 341 334 324 334 327 332 338 328 325 346 339
Wind_Speed
36 38 38 39 43 37 47 47 51 33 47 30 32 25 27 33 40 30 43 33 30 27 23 27 27 35 32 34 40 40 39 42 48 39 50 37 45 46 46 57 63 60 64 65 75 84 89
35 39 37 38 40 42 41 42 36 48 34 36 37 45 39 30 35 36 33 37 37 38 40 34 35 40 33 37 43 51 49 42 47 46 51 54 55 55 53 56 55 58 63 74 72 70 74
40 40 37 39 40 44 44 41 38 50 49 49 37 46 34 34 33 42 44 47 42 45 48 40 40 39 53 62 51 51 54 59 47 58 56 62 66 60 74 66 67 76 78 61 75 68 76
37 38 39 40 44 42 42 36 41 52 55 33 55 50 41 47 35 50 44 44 45 51 50 51 45 37 56 42 51 51 67 41 67 56 62 63 62 70 53 75 74 87 77 66 79 87 72
40 41 41 41 43 41 44 40 45 48 53 53 46 55 47 53 45 52 52 51 56 58 56 54 46 58 48 57 68 76 54 46 59 53 63 59 78 81 83 76 75 93 86 91 83 92 79
44 43 42 31 45 43 45 45 35 49 55 49 55 46 42 43 49 53 52 54 58 57 55 40 68 51 67 56 70 63 82 55 72 83 92 81 94 66 80 101 97 87 94 103 102 101 87
46 44 45 43 46 46 49 53 52 48 42 55 56 56 44 49 54 56 54 59 61 56 65 64 75 53 34 87 68 83 85 70 95 78 84 101 92 98 69 116 109 87 109 95 113 114 107
48 46 46 34 45 47 50 51 52 52 57 45 54 49 49 52 52 54 60 61 62 56 66 71 73 61 83 76 73 63 97 88 90 98 109 107 120 122 111 122 101 101 118 99 102 88 98
48 49 48 46 47 49 52 54 50 55 48 50 51 46 50 50 52 56 59 60 62 51 69 75 67 78 83 61 64 100 80 94 98 97 115 123 132 133 133 134 133 126 129 110 112 115 129
47 48 48 49 45 50 50 55 53 40 42 45 45 48 50 51 56 56 60 67 64 72 74 81 84 87 85 68 101 81 104 89 112 113 122 133 136 137 131 136 137 139 141 139 132 128 135
50 50 46 47 49 49 53 47 39 39 43 44 46 49 50 53 58 59 63 67 70 62 75 85 56 91 63 96 82 114 117 119 128 122 135 130 136 138 84 91 68 68 71 83 136 138 145
49 50 45 46 47 49 51 41 43 45 48 48 49 53 53 60 59 64 67 69 51 80 82 85 95 97 90 109 114 119 116 125 135 135 141 76 44 50 56 55 56 65 61 65 67 75 84
48 48 44 46 47 47 51 50 48 49 48 50 53 57 57 58 63 66 69 63 79 81 84 88 93 98 100 112 113 124 131 137 126 109 34 30 25 40 47 48 49 51 51 52 39 54 60
44 43 46 46 47 49 51 52 53 54 50 50 52 56 60 60 64 67 67 75 77 83 72 100 92 113 120 115 121 124 141 135 142 73 72 44 29 30 40 43 41 40 44 47 44 39 37
40 41 44 46 48 51 50 54 56 59 52 56 56 55 55 63 65 68 72 66 82 74 97 102 110 112 109 132 139 139 140 123 74 70 42 36 24 33 42 39 40 37 34 41 38 37 35
40 42 42 45 50 52 54 55 57 61 61 56 58 61 62 64 68 71 73 84 87 91 97 94 113 117 123 136 137 137 141 73 72 46 46 45 32 31 33 33 34 34 35 33 31 38 31
41 46 45 46 48 53 53 52 56 55 58 53 59 61 62 67 70 75 83 84 71 102 106 115 108 125 125 139 139 139 96 73 72 54 38 39 31 27 28 29 25 25 29 27 30 35 37
40 43 45 48 49 52 52 55 52 52 58 57 60 62 66 68 68 78 85 93 98 91 105 109 114 128 134 139 139 89 74 71 71 59 39 36 26 20 27 26 25 26 27 30 29 28 35
42 44 44 48 49 52 53 55 58 53 54 61 62 65 69 70 74 77 87 95 100 106 112 106 126 122 133 133 137 75 69 71 69 66 47 39 29 22 21 22 25 25 27 28 28 29 31
43 42 42 47 50 52 52 56 59 59 58 62 66 70 72 72 80 83 70 98 103 100 106 120 125 127 138 137 122 94 71 67 65 67 53 35 29 23 21 22 22 20 24 26 28 28 29
42 45 43 49 48 51 54 53 53 55 60 63 65 71 74 81 82 90 93 102 88 114 118 127 133 119 126 136 89 93 68 66 65 66 61 32 30 27 23 25 26 20 24 28 30 29 29
39 38 44 49 52 49 50 52 55 61 66 69 70 65 71 83 68 93 98 105 111 112 119 127 123 129 134 141 87 87 90 62 64 65 64 50 39 31 25 24 25 26 25 27 29 29 25
36 43 47 51 49 51 54 56 61 63 61 64 70 73 77 76 85 93 99 86 105 116 115 121 123 124 138 139 85 88 92 63 63 65 56 49 44 33 28 27 25 22 27 25 28 29 28
40 43 48 48 51 54 57 57 60 62 62 64 69 79 68 88 88 97 101 109 114 117 112 127 129 125 134 140 84 87 92 65 65 66 53 49 43 38 31 28 24 24 25 26 28 28 27
39 44 47 51 49 56 56 55 58 64 65 65 64 77 85 87 91 99 98 109 111 110 121 126 124 132 142 135 80 83 90 65 66 63 51 47 43 38 35 29 26 23 24 27 29 32 30
45 47 51 53 56 57 60 58 60 61 71 68 72 80 89 84 97 90 106 110 116 121 124 124 125 133 140 88 80 85 92 70 73 56 48 44 39 38 36 33 28 26 26 26 28 32 32
46 49 46 52 55 61 61 67 63 64 73 73 75 83 84 90 94 101 104 111 108 121 120 121 126 138 140 81 81 87 93 69 72 53 50 47 41 37 34 32 30 27 25 28 31 27 30
48 50 47 53 56 63 61 61 66 72 61 72 73 82 84 79 96 104 104 111 116 119 121 125 125 140 141 75 78 87 91 68 71 52 47 43 40 39 38 36 33 32 29 26 26 27 31
45 48 52 54 61 61 60 64 67 69 74 72 78 89 84 88 104 107 110 114 114 120 121 124 134 139 140 72 75 90 89 66 70 48 43 39 36 34 35 31 31 29 28 28 27 28 27
Wind_Direction
274 275 285 290 293 320 310 312 313 314 312 311 323 320 314 329 335 310 335 316 322 317 292 312 297 324 279 290 313 273 303 259 256 258 255 265 254 261 268 266 262 261 262 263 261 260 258
293 297 294 296 309 298 310 307 308 314 304 304 317 322 319 312 319 326 311 313 311 318 321 297 300 312 269 299 296 311 303 286 274 285 256 256 251 251 250 280 265 257 258 261 261 263 262
284 291 291 290 297 293 300 310 315 313 313 312 313 316 311 314 293 319 320 320 314 318 319 307 271 299 316 320 307 293 303 304 271 258 261 297 259 257 260 262 254 252 250 293 255 264 261
279 287 289 291 291 297 304 301 315 310 310 294 311 310 305 314 303 318 311 311 312 316 315 313 299 276 313 273 304 296 310 261 305 287 268 256 293 254 279 283 289 251 247 268 250 253 258
279 289 294 295 293 302 299 310 308 306 304 304 300 307 309 315 313 317 316 314 319 318 315 312 305 307 303 294 311 309 293 291 295 291 299 274 265 300 252 292 273 288 247 252 287 249 255
282 282 285 307 293 299 302 306 302 305 302 306 306 298 300 304 310 313 312 314 317 313 310 299 314 296 311 309 296 290 308 295 302 309 305 274 305 283 254 298 294 291 249 280 253 249 253
278 278 283 298 288 297 298 299 300 308 307 301 304 302 302 301 309 313 312 314 315 311 313 312 314 309 281 310 313 311 311 257 306 260 308 306 263 301 285 296 293 250 292 245 281 278 249
272 278 279 303 291 297 300 301 303 306 301 304 301 303 301 309 309 310 312 312 311 306 310 311 309 312 309 311 314 312 306 310 294 297 305 306 297 294 301 295 273 261 286 277 264 282 271
273 276 279 287 294 298 298 297 305 298 294 296 297 305 300 306 308 310 309 308 309 308 309 309 310 309 307 307 310 304 312 308 309 310 307 304 298 296 294 290 289 288 287 252 275 263 275
276 274 276 284 299 294 300 298 301 299 295 297 303 301 303 303 309 306 306 308 307 308 310 307 306 304 306 313 302 314 303 310 304 305 302 297 292 292 294 290 288 283 279 277 270 272 270
276 276 278 283 285 296 294 299 300 300 296 300 302 296 301 304 306 305 305 306 308 309 310 305 310 304 312 307 313 301 301 303 301 308 301 304 295 289 282 279 274 271 265 261 264 264 261
275 277 278 281 289 295 297 299 301 295 294 298 298 301 301 305 305 307 304 309 310 306 303 307 301 303 304 305 305 305 312 311 308 310 305 299 297 291 284 280 277 275 273 267 261 256 254
275 278 279 283 291 294 298 298 297 290 293 296 297 301 302 303 305 305 307 312 304 302 305 309 304 308 309 309 311 312 310 311 310 310 311 304 300 290 284 281 278 278 280 280 274 262 262
275 280 278 287 292 297 301 298 294 293 290 294 299 301 303 301 302 304 312 304 308 301 320 302 314 303 305 312 314 316 311 317 315 314 313 311 307 286 285 283 282 281 281 279 276 269 248
276 274 281 285 299 300 297 299 298 298 296 296 298 301 312 303 304 310 304 314 304 318 303 306 307 309 319 309 309 310 318 318 321 319 316 314 312 292 286 288 286 280 277 275 278 271 258
269 275 280 289 297 299 299 293 294 296 298 301 303 307 305 306 307 305 308 306 307 309 310 315 309 312 314 312 315 320 320 327 324 321 318 317 312 296 290 288 287 284 277 271 261 266 251
271 280 283 290 294 299 299 292 295 298 299 298 305 305 307 307 303 308 305 304 319 306 308 308 319 311 319 315 318 321 329 329 326 326 314 315 313 306 298 292 289 283 277 275 262 262 257
270 278 282 290 293 297 299 293 301 300 305 302 303 303 307 309 304 303 310 306 307 316 311 315 319 311 315 318 323 327 332 330 329 334 323 322 320 307 302 296 289 284 278 276 271 257 257
272 281 283 291 299 296 296 304 295 306 302 303 303 303 315 305 306 312 306 309 309 310 310 323 315 322 319 323 336 334 332 331 331 331 336 330 324 309 295 289 288 287 282 276 271 266 257
275 280 287 293 301 297 297 299 299 298 305 306 301 302 307 309 312 307 322 308 310 319 322 318 318 321 322 335 337 335 333 332 332 331 340 328 323 314 300 291 287 284 280 276 274 271 266
272 284 292 292 300 301 293 300 303 302 299 302 302 305 307 309 307 311 311 310 325 314 319 316 319 329 329 337 336 334 334 333 334 332 339 328 324 318 307 297 294 285 280 277 276 274 272
274 287 293 294 298 299 297 300 301 302 303 304 307 305 316 303 315 308 308 310 313 320 319 319 325 325 337 338 337 334 335 336 334 334 336 338 332 320 310 298 296 292 284 277 273 272 271
279 289 289 295 303 304 304 302 306 301 306 313 310 315 311 310 309 313 312 327 324 316 326 323 327 331 338 339 336 336 336 337 336 336 340 337 335 323 315 300 292 285 284 279 276 275 274
279 285 290 298 304 306 304 304 305 303 307 310 316 309 323 308 317 314 320 316 316 318 325 320 326 333 337 339 337 336 337 339 339 338 338 336 334 329 324 310 301 288 278 274 272 271 270
281 286 292 297 303 299 307 309 303 312 302 313 311 308 311 307 311 315 322 315 319 325 322 324 335 337 339 339 337 336 336 339 339 341 338 335 332 329 324 321 310 294 277 269 266 266 266
283 288 295 299 304 301 307 306 307 307 301 313 312 305 310 320 312 320 316 319 318 322 325 328 335 337 339 337 337 336 338 342 341 342 339 336 329 326 321 319 318 305 295 282 269 265 261
284 289 299 293 303 308 309 300 307 307 315 311 310 308 321 311 321 313 321 317 327 325 328 333 335 338 339 338 338 338 338 342 341 343 338 336 332 328 324 319 314 310 301 290 285 280 271
286 295 293 303 299 308 309 304 308 312 322 306 323 322 320 318 318 316 325 323 322 324 327 336 335 338 339 338 337 337 338 342 342 344 337 334 330 328 326 321 316 312 308 301 291 280 278
289 295 299 298 304 306 302 307 303 313 304 320 322 321 314 324 315 316 319 320 324 325 332 335 338 339 339 337 335 336 338 342 341 344 336 332 329 325 322 319 314 311 303 300 301 293 284